Lid_Strength_Index
8 11 13 11 11 11 11 13 14 12 9 11 11 11 9 8 8 8 7 7 7 7 5 5 5 2 2 2 1 2 2 2 3 3 4 3 4 4 3 2 1 1 1 1
11 13 10 9 10 11 12 13 14 11 9 10 11 11 9 9 8 8 7 8 8 7 7 5 6 3 2 2 2 2 1 1 2 2 2 3 3 3 3 2 2 2 1 1
13 11 8 10 11 13 13 13 13 13 11 10 12 13 11 9 9 8 7 7 7 7 6 6 6 4 3 2 2 2 1 2 2 1 2 3 4 4 4 3 2 2 2 2
11 8 10 11 12 11 15 10 11 12 14 17 12 18 13 11 9 9 8 8 7 7 6 6 5 5 3 2 2 1 1 1 1 1 2 2 3 4 3 3 2 2 2 3
12 11 11 12 11 10 13 10 11 12 14 16 15 17 14 11 11 10 9 8 7 7 7 6 6 4 3 2 2 2 1 1 1 1 1 2 2 2 2 2 3 2 2 3
10 8 9 10 9 9 9 11 13 13 14 19 14 16 15 12 11 10 8 8 8 8 7 7 6 5 4 3 2 2 2 2 1 1 1 2 2 2 2 2 3 3 2 2
12 11 9 8 12 10 10 13 19 20 20 20 14 16 14 10 10 9 9 8 9 8 8 7 7 6 6 4 4 3 3 2 1 2 2 2 2 2 2 2 2 2 2 2
16 17 11 9 11 13 13 13 18 22 21 19 14 18 14 9 7 6 7 8 8 8 8 8 7 7 7 6 5 3 3 3 2 1 2 2 2 1 2 1 1 2 2 2
15 15 9 9 9 9 13 15 11 16 19 19 17 14 10 9 9 9 9 9 9 9 9 8 8 8 7 7 7 5 4 3 2 2 1 1 2 2 1 1 1 1 1 1
12 16 11 9 9 9 11 10 16 16 22 23 18 18 16 13 11 10 11 10 9 9 9 8 8 8 7 7 7 7 5 4 3 2 2 1 1 1 1 1 1 1 1 1
12 13 14 11 13 13 13 14 13 13 16 20 21 18 12 11 11 10 10 10 9 9 9 9 8 8 8 8 8 8 7 7 6 5 2 2 2 2 1 1 1 1 1 1
11 14 16 14 10 9 10 12 13 17 18 16 17 17 10 10 10 11 11 9 9 10 9 9 9 9 9 9 8 8 7 7 6 6 6 5 4 4 3 2 1 1 1 1
10 15 22 16 13 11 12 12 12 13 14 17 19 16 9 10 11 11 11 12 11 11 11 10 10 10 10 10 9 9 8 8 7 6 6 6 6 7 5 4 3 2 1 1
7 13 14 17 15 13 14 13 12 13 17 16 16 14 12 11 12 11 12 11 12 11 10 10 11 11 10 10 10 9 8 8 7 7 6 7 7 7 7 7 5 4 3 2
10 18 15 14 13 12 13 13 13 14 13 16 13 13 11 10 11 11 11 11 10 10 11 11 11 10 11 10 10 8 8 8 7 7 7 6 6 6 7 7 6 6 5 4
11 17 14 17 14 13 16 13 13 12 12 13 13 13 10 10 10 11 10 9 10 11 11 10 10 10 10 10 9 9 9 8 8 9 8 7 7 7 7 7 7 7 6 6
11 15 18 18 15 15 18 15 14 14 12 12 14 10 8 11 10 12 12 11 12 11 11 11 11 11 10 10 9 9 9 9 9 9 8 8 8 8 8 8 8 8 7 6
11 13 14 22 19 20 14 13 11 12 12 11 12 12 12 13 13 14 13 14 14 12 13 13 12 12 12 11 11 10 11 11 10 10 10 10 9 9 9 9 9 8 7 7
9 12 17 20 26 18 15 14 14 14 15 17 17 17 17 16 13 16 15 15 15 14 14 14 13 13 13 13 13 13 13 13 12 12 11 11 10 10 10 10 9 8 9 8
9 9 13 22 22 23 16 15 13 12 17 19 18 19 19 16 16 17 17 17 16 16 16 16 15 15 15 15 15 15 15 14 13 12 12 11 11 11 11 10 10 9 9 9
14 13 16 22 22 21 15 15 14 18 18 18 19 19 20 19 19 18 18 18 17 17 17 16 17 17 16 16 16 16 15 15 13 13 13 13 12 12 11 11 10 10 10 10
14 15 16 20 22 20 20 16 16 18 19 19 20 21 21 21 20 20 19 19 19 19 18 18 18 18 18 17 17 17 17 15 15 15 15 14 13 12 11 11 11 10 10 11
15 13 15 15 18 21 20 20 19 19 20 21 21 21 21 22 22 21 21 20 20 20 20 19 20 20 19 19 18 19 18 18 17 17 16 15 15 14 12 12 12 11 10 10
15 15 17 18 22 22 21 21 21 21 21 21 21 22 22 23 21 21 21 21 21 21 21 20 21 21 21 20 20 20 19 19 19 20 19 17 16 14 14 12 12 11 11 10
19 16 18 21 20 22 22 22 22 22 22 22 22 22 22 22 22 22 22 22 22 22 22 22 22 22 22 21 21 21 20 19 20 20 19 17 15 15 14 12 12 11 10 9
22 22 17 17 19 21 22 23 23 23 24 23 23 24 23 23 23 23 24 23 23 23 23 23 23 23 23 22 22 22 21 21 22 21 19 18 18 18 16 15 14 11 10 9